Dewpoint
26 25 21 16 15 14 14 12 8 11 10 9 17 14 15 17 16 16 15 16 17 20 24 27 31 31 32 33 33 33 32 33 35 37 41 44 46 48 49 50 50 51 52 53
21 22 20 17 16 14 14 14 14 13 10 8 15 13 17 18 17 17 16 15 19 21 25 29 33 34 33 34 35 35 35 35 37 38 40 44 46 48 49 50 50 51 52 53
19 22 19 15 20 22 21 22 21 17 18 17 14 18 20 20 20 22 16 19 21 23 25 29 33 33 32 32 33 33 35 36 38 40 43 45 45 47 48 49 50 50 51 43
22 21 15 23 28 28 22 23 27 23 23 25 25 20 22 24 27 22 23 24 26 27 27 28 33 33 32 32 32 33 34 38 40 41 42 44 44 44 45 46 47 47 44 42
18 16 18 16 22 15 15 11 24 26 27 31 28 22 22 31 28 27 28 28 29 28 29 28 30 33 32 32 32 32 32 35 37 38 39 41 42 43 45 44 42 41 41 41
19 17 13 26 25 21 25 17 30 27 26 29 29 19 28 32 31 31 31 32 31 32 29 27 29 33 32 32 32 31 32 33 36 37 38 39 40 41 41 40 39 39 37 37
19 19 17 30 21 13 8 23 23 25 26 29 28 26 25 33 31 31 30 31 32 33 30 30 29 32 32 32 31 33 32 33 33 35 36 37 37 39 39 38 38 37 37 37
19 14 12 23 10 8 28 25 17 16 19 25 33 33 34 33 32 30 29 29 34 29 29 33 32 32 33 32 34 35 35 34 34 34 34 34 34 35 36 36 36 36 35 35
21 25 34 25 24 27 21 18 16 17 17 15 15 12 22 27 30 30 33 31 30 27 28 33 33 32 32 34 34 34 35 34 34 35 34 34 33 33 33 33 33 33 33 32
22 26 23 26 25 20 20 18 18 18 15 16 14 11 9 9 9 10 9 11 15 24 24 29 32 31 26 26 28 34 34 34 34 34 34 33 33 32 33 33 33 32 32 32
23 23 21 20 18 22 17 18 18 18 15 15 14 11 8 8 7 8 7 10 12 25 26 19 20 22 24 24 26 25 28 32 34 32 28 27 26 29 26 26 27 33 30 27
24 25 23 19 21 19 18 17 17 17 15 15 14 12 9 9 7 8 8 8 9 13 16 17 18 18 21 23 24 26 26 27 28 28 30 28 26 25 25 26 25 24 24 26
24 21 16 20 18 18 16 16 15 16 16 15 13 12 10 10 9 10 12 8 7 10 13 17 17 19 20 21 21 24 26 27 27 28 28 28 30 30 28 26 25 25 23 21
21 21 19 16 15 18 16 16 16 16 16 16 14 13 11 11 13 9 10 10 9 10 10 13 16 20 21 20 21 22 22 22 27 28 28 28 28 28 30 32 33 31 26 26
14 19 19 15 16 15 15 16 17 17 14 14 16 16 14 14 14 14 13 14 14 14 13 10 10 17 22 22 20 21 21 22 26 26 26 26 27 27 27 29 30 32 32 27
18 15 16 16 12 13 16 16 17 17 16 16 17 18 18 17 17 17 18 15 17 17 17 12 13 16 21 23 22 25 21 20 22 24 25 25 24 27 28 28 28 30 31 30
22 19 18 17 16 13 13 17 18 19 18 17 18 20 20 20 20 20 19 20 19 20 20 20 19 16 20 22 24 25 27 25 20 23 19 19 20 23 24 27 28 27 30 30
23 24 21 20 20 18 16 16 18 19 20 20 20 21 21 21 22 21 21 22 22 22 22 23 22 21 20 22 24 25 24 25 26 25 25 23 23 21 21 21 22 23 25 28
25 24 25 21 20 20 20 19 19 19 20 21 22 22 22 23 23 23 23 22 24 24 26 24 24 23 23 23 23 25 23 21 19 20 23 23 23 23 24 23 23 24 24 26
26 26 27 25 25 23 22 21 20 20 21 21 22 22 22 24 25 25 25 23 24 26 28 28 27 26 26 24 22 24 26 23 21 21 23 24 25 26 25 23 23 23 25 26
28 28 28 27 27 28 27 25 24 21 21 22 22 23 24 24 25 26 25 24 25 25 27 27 30 29 29 27 24 25 25 27 27 25 26 26 25 25 26 27 28 28 27 28
29 29 29 29 28 27 28 27 25 24 23 23 24 25 26 25 24 24 26 26 27 26 28 28 29 29 29 27 28 30 31 31 31 32 32 32 31 31 32 32 31 31 31 31
28 27 28 29 29 29 28 28 28 26 26 27 27 28 26 25 25 23 23 26 27 27 28 28 29 29 28 29 32 32 33 33 34 35 35 36 35 35 35 35 35 34 34 34
23 25 27 27 30 29 28 27 26 26 27 28 27 27 27 26 26 27 25 24 24 26 28 29 29 28 29 32 33 35 36 35 36 36 37 37 38 38 38 38 37 37 37 36
20 21 27 27 27 29 29 28 26 26 26 26 26 27 27 28 26 28 27 25 24 25 29 30 28 29 31 35 37 36 37 37 38 38 38 38 38 38 39 39 38 38 37 37
14 14 16 20 24 25 27 29 27 26 25 25 25 26 27 27 27 27 27 27 26 27 29 35 33 31 34 36 38 38 38 38 38 38 39 39 39 39 39 39 39 38 38 37
20 20 19 16 15 18 27 29 28 26 26 24 23 25 28 29 28 28 27 27 28 29 34 35 38 36 35 36 37 38 39 39 38 39 39 39 39 39 40 40 40 38 37 37
Wind_Speed
12 16 19 22 22 19 19 21 23 17 21 20 10 15 15 18 17 15 17 18 17 15 12 14 16 20 19 17 16 15 16 16 16 16 14 13 16 8 6 8 8 9 9 7
12 15 12 20 21 22 24 22 23 21 21 12 12 15 18 19 19 15 18 19 18 17 13 14 16 16 17 16 17 15 15 16 18 14 13 12 15 10 9 7 10 10 10 11
12 8 21 18 11 11 16 15 10 17 18 11 17 18 18 17 16 13 18 19 19 18 16 14 13 13 16 18 15 14 13 14 15 11 11 10 4 13 10 6 6 10 11 20
13 19 9 2 4 5 5 15 13 14 16 14 15 18 19 13 7 13 14 16 17 17 18 18 14 16 18 12 12 9 7 6 4 3 6 4 3 9 10 10 14 17 19 17
5 14 21 14 4 2 2 11 14 17 14 8 12 17 9 5 5 8 11 12 12 14 16 17 14 16 16 13 11 8 8 7 8 8 6 10 10 13 8 14 16 16 15 14
12 11 6 3 4 8 5 6 8 4 3 4 6 8 6 7 7 10 11 10 11 11 12 13 13 15 13 11 11 8 7 7 8 6 8 10 11 15 13 15 15 14 15 14
15 11 11 5 7 4 3 0 0 5 8 9 8 9 10 7 9 10 12 11 10 7 7 9 11 11 10 10 10 7 5 6 6 8 14 10 11 10 12 14 14 15 14 11
6 5 7 12 8 6 2 3 6 6 5 4 13 15 12 10 10 12 11 10 7 5 7 6 8 9 9 5 7 8 6 9 12 12 11 10 13 13 13 13 14 12 11 10
5 7 3 13 7 8 7 7 7 5 5 3 5 5 4 8 11 8 14 11 7 2 7 6 5 8 12 2 8 9 11 13 12 10 13 13 13 13 13 11 10 9 9 8
8 6 15 20 17 17 12 13 9 7 6 4 5 5 6 4 4 5 6 6 4 1 7 3 3 5 8 10 6 9 11 9 10 13 14 15 12 13 12 9 10 9 8 8
20 24 21 17 16 18 17 14 12 10 8 6 4 5 3 4 4 4 5 6 5 4 4 7 7 7 9 10 10 12 12 8 8 12 15 15 16 14 13 12 8 7 10 10
9 9 11 8 13 18 19 18 15 13 11 9 7 6 3 4 2 3 4 4 6 7 7 8 9 9 9 8 10 10 11 9 8 8 11 14 13 11 11 9 12 13 12 10
21 14 11 13 4 18 19 18 17 15 13 11 9 7 6 5 1 1 4 3 4 5 6 6 7 8 7 7 9 8 8 8 9 10 9 8 8 12 9 3 7 8 9 10
18 17 18 14 10 14 16 17 16 15 15 13 10 8 7 6 4 5 4 2 2 3 3 4 5 6 5 5 6 5 6 3 8 6 5 7 7 8 8 7 6 5 4 2
17 15 17 13 14 14 18 17 18 18 16 15 12 10 9 9 9 7 5 3 3 3 3 2 3 4 4 2 4 4 5 6 6 7 4 2 5 5 5 5 5 6 7 3
24 14 18 19 17 17 19 20 21 19 18 15 14 14 12 11 10 10 8 7 6 7 5 2 3 2 2 1 0 4 3 1 4 4 7 3 3 5 4 3 4 7 7 5
23 18 14 20 20 18 20 20 20 19 18 18 17 15 15 14 13 12 12 10 10 10 8 7 7 6 6 5 5 4 7 5 5 9 3 2 5 7 7 8 7 4 6 8
21 24 16 15 18 19 19 20 22 21 20 18 17 17 17 17 17 15 14 12 12 13 12 11 10 9 10 9 8 7 6 8 9 8 5 7 7 3 5 4 4 4 3 9
23 22 24 17 15 18 19 19 20 21 20 20 19 20 19 18 18 17 15 15 16 15 14 13 13 13 12 13 12 9 9 9 8 8 9 3 3 8 8 5 4 4 4 5
27 23 20 21 21 18 18 19 18 20 21 21 20 21 21 21 19 17 16 18 17 14 12 14 14 16 15 13 18 11 11 10 10 10 9 9 9 8 6 5 5 5 5 5
26 26 25 21 19 20 19 17 16 19 20 21 22 24 23 20 19 19 18 19 17 16 16 14 14 13 13 13 16 13 13 12 11 10 10 9 10 10 9 9 8 7 9 10
22 23 25 24 23 21 19 20 20 20 20 22 23 23 20 22 21 20 22 21 13 17 16 17 16 17 14 17 17 15 14 14 13 11 12 12 13 12 13 12 13 13 13 13
23 25 25 22 24 25 24 21 21 20 21 21 21 20 25 22 20 20 21 21 19 17 15 16 17 20 22 16 15 16 16 16 15 15 14 14 14 14 15 16 16 15 16 15
30 30 31 27 23 23 24 23 21 19 19 19 21 23 21 21 22 21 20 17 20 23 21 18 19 22 23 18 18 16 16 17 17 17 17 18 16 16 15 16 17 16 16 16
26 29 26 28 24 21 23 25 22 21 22 22 23 23 25 22 24 21 21 20 19 20 20 23 24 23 22 19 18 19 19 18 18 18 18 18 18 18 19 18 18 18 17 17
37 32 31 31 29 27 26 22 23 21 19 20 21 21 22 21 22 23 21 24 23 22 22 18 22 22 20 20 20 21 20 20 21 21 21 20 19 19 20 20 19 18 17 16
27 26 30 29 27 30 26 20 22 21 21 18 20 18 20 22 23 23 25 24 21 20 19 20 20 24 22 22 21 21 20 20 21 20 20 20 20 21 20 18 17 15 14 15
Wind_Direction
310 298 281 276 275 272 260 262 268 288 295 305 337 318 322 315 319 326 325 321 318 322 336 320 317 311 313 304 296 294 282 275 267 269 272 275 262 240 219 200 154 157 154 145
304 293 269 273 269 267 264 264 264 281 279 289 318 326 318 315 321 331 328 322 321 326 325 316 311 309 308 304 296 290 279 271 266 260 268 272 248 219 198 186 173 156 151 131
291 308 309 290 280 263 259 258 238 259 270 294 303 312 305 319 318 331 322 320 324 326 328 331 328 324 309 307 300 288 273 271 266 254 255 257 230 206 200 159 112 159 159 104
282 307 280 190 198 181 266 280 228 247 255 268 283 296 304 317 12 322 320 315 319 324 327 327 342 330 319 314 311 306 299 285 344 341 260 170 120 94 87 76 74 82 91 93
295 302 285 284 200 207 267 292 241 244 261 265 291 305 292 29 339 304 299 304 302 309 322 326 339 336 331 330 339 343 359 2 22 355 51 62 72 69 69 90 82 78 81 88
288 302 288 221 181 179 167 284 80 167 258 262 307 304 315 290 307 303 297 297 293 298 321 334 340 336 336 340 346 10 7 15 18 31 57 52 52 74 83 89 91 92 84 72
272 264 259 169 194 169 257 112 92 187 204 217 232 233 262 294 294 278 278 287 281 295 322 330 338 329 330 340 1 17 16 53 58 50 66 67 67 73 89 91 94 88 91 88
243 254 270 167 176 214 179 228 262 284 253 185 218 246 249 250 258 261 268 276 246 314 332 322 327 316 322 0 27 16 33 64 57 57 68 77 77 75 78 90 93 99 97 83
266 247 188 199 216 223 225 255 271 272 297 298 304 330 197 192 240 255 221 246 126 355 316 300 278 305 319 307 117 68 50 55 58 64 77 80 81 78 76 83 94 97 98 90
282 272 253 241 231 233 236 238 251 255 256 291 298 326 325 343 351 354 2 14 13 339 316 306 253 315 13 13 32 117 90 81 87 84 65 51 60 57 59 72 89 89 106 111
256 270 262 249 234 220 225 223 235 242 250 262 269 288 327 322 356 1 13 16 3 167 271 34 48 35 33 19 23 47 42 72 94 89 77 62 51 47 59 45 39 61 40 48
249 271 241 279 213 208 213 216 219 226 233 234 240 259 273 283 6 344 19 7 11 30 31 34 47 52 49 33 42 47 68 55 35 75 131 131 115 95 70 71 56 62 54 61
249 263 308 251 260 201 208 212 213 218 227 235 224 232 239 260 271 333 264 343 25 24 25 34 46 61 60 61 74 57 54 63 72 59 63 64 114 137 121 90 66 66 74 76
232 256 268 261 247 207 210 210 213 220 224 229 236 219 225 241 174 240 270 346 351 356 13 22 37 65 59 51 69 90 119 79 64 73 87 73 71 69 82 109 138 156 196 170
292 236 250 270 235 215 213 212 215 217 225 223 221 232 219 222 238 240 254 241 238 259 295 313 16 52 81 63 69 50 21 60 90 106 63 52 104 96 108 124 129 137 151 202
302 267 250 242 260 233 210 218 218 222 218 226 221 214 224 232 234 244 224 226 232 251 244 219 250 194 158 198 129 136 102 351 315 294 163 194 153 150 162 188 181 174 167 161
322 282 251 253 246 245 228 218 226 225 227 218 224 217 216 222 230 234 237 213 220 234 244 240 228 188 185 212 218 255 165 174 260 293 220 219 199 188 199 193 199 209 174 157
328 319 283 249 247 248 245 230 221 226 226 228 218 217 219 222 227 229 226 230 223 221 226 225 222 189 191 201 219 240 234 193 202 232 224 216 250 241 226 213 213 214 189 164
344 336 327 306 262 254 249 239 232 226 228 223 224 220 220 225 228 230 230 222 219 223 223 224 216 199 201 198 206 227 235 236 222 216 213 204 232 241 248 239 232 226 228 183
344 342 335 324 315 286 262 248 240 231 227 228 223 226 224 222 225 228 225 233 225 228 220 226 203 194 207 215 191 213 235 239 230 238 214 214 234 236 240 242 243 260 270 263
341 337 335 327 317 309 292 273 247 240 230 226 230 229 227 227 220 219 229 233 231 224 214 221 189 200 208 203 191 204 220 236 243 233 231 222 232 247 254 258 259 244 237 241
339 336 332 329 322 311 301 281 262 247 240 230 227 227 225 226 229 224 218 228 229 221 211 208 208 211 218 195 187 200 212 225 232 231 234 227 225 229 236 241 245 244 243 242
329 328 324 327 322 314 306 293 279 249 238 236 229 223 223 228 226 232 231 217 218 221 210 213 212 207 209 210 205 202 207 216 225 231 236 236 235 233 234 236 240 241 243 241
316 318 312 308 309 310 304 298 288 264 245 237 239 232 229 227 232 233 241 229 216 213 212 217 212 207 203 205 209 216 213 217 222 224 228 230 232 232 232 234 239 240 242 242
299 300 307 310 305 301 303 303 285 270 259 244 237 233 233 228 230 230 233 235 230 218 211 213 211 209 206 204 207 212 218 221 223 225 229 230 232 229 231 231 234 235 239 246
304 299 302 297 297 300 294 287 284 277 253 250 237 232 224 233 230 229 231 226 230 222 217 205 207 209 206 207 211 215 218 223 226 228 228 230 230 229 229 230 232 232 235 246
307 304 296 286 279 279 276 282 280 270 275 255 251 238 226 222 229 230 225 232 232 226 210 210 204 204 208 212 215 220 223 227 228 229 230 231 232 234 232 228 225 225 221 228